| time (UTC) | temp C | wind direction | speed KPH | gust KPH | rain 1hr cm | rain 24hr cm | rain mn cm | humidity % | barometer mb |
| 20260505204601 | 29 | 134 | 4.8 | 16.1 | 0.00 | 0.00 | 0.00 | 65 | 1004.6 |
| 20260505203057 | 29 | 263 | 8.0 | 16.1 | 0.00 | 0.00 | 0.00 | 64 | 1004.8 |
| 20260505201556 | 28 | 210 | 4.8 | 11.3 | 0.00 | 0.00 | 0.00 | 67 | 1005.2 |
| 20260505200049 | 28 | 229 | 4.8 | 16.1 | 0.00 | 0.00 | 0.00 | 68 | 1005.5 |
| 20260505194546 | 27 | 294 | 8.0 | 14.5 | 0.00 | 0.00 | 0.00 | 71 | 1005.8 |
| 20260505193041 | 27 | 244 | 6.4 | 14.5 | 0.00 | 0.00 | 0.00 | 73 | 1005.9 |
| 20260505191541 | 27 | 218 | 4.8 | 11.3 | 0.00 | 0.00 | 0.00 | 72 | 1006.0 |
| 20260505190039 | 26 | 195 | 6.4 | 14.5 | 0.00 | 0.00 | 0.00 | 73 | 1006.3 |
| 20260505184533 | 26 | 265 | 8.0 | 14.5 | 0.00 | 0.00 | 0.00 | 75 | 1006.7 |
| 20260505183035 | 25 | 212 | 6.4 | 17.7 | 0.00 | 0.00 | 0.00 | 76 | 1006.7 |
| 20260505181529 | 25 | 237 | 4.8 | 12.9 | 0.00 | 0.00 | 0.00 | 77 | 1006.9 |
| 20260505180025 | 25 | 256 | 6.4 | 12.9 | 0.00 | 0.00 | 0.00 | 78 | 1007.0 |
| 20260505174521 | 23 | 257 | 6.4 | 16.1 | 0.00 | 0.00 | 0.00 | 82 | 1007.3 |
| 20260505173020 | 23 | 272 | 8.0 | 16.1 | 0.00 | 0.00 | 0.00 | 82 | 1007.3 |
| 20260505171522 | 23 | 240 | 6.4 | 20.9 | 0.00 | 0.00 | 0.00 | 84 | 1007.4 |
| 20260505170017 | 22 | 220 | 6.4 | 14.5 | 0.00 | 0.00 | 0.00 | 85 | 1007.5 |
| 20260505164509 | 22 | 246 | 4.8 | 14.5 | 0.00 | 0.00 | 0.00 | 87 | 1007.4 |
| 20260505163008 | 22 | 241 | 6.4 | 12.9 | 0.00 | 0.00 | 0.00 | 87 | 1007.4 |
| 20260505161502 | 21 | 242 | 6.4 | 17.7 | 0.00 | 0.00 | 0.00 | 87 | 1007.3 |
| 20260505153101 | 21 | 236 | 4.8 | 17.7 | 0.00 | 0.00 | 0.00 | 90 | 1007.3 |
| 20260505151556 | 21 | 255 | 6.4 | 24.1 | 0.00 | 0.00 | 0.00 | 90 | 1007.4 |
| 20260505130105 | 19 | 268 | 6.4 | 16.1 | 0.00 | 0.00 | 0.00 | 93 | 1006.8 |
| 20260505124552 | 20 | 211 | 8.0 | 16.1 | 0.00 | 0.00 | 0.00 | 93 | 1006.7 |
| 20260505123045 | 20 | 218 | 4.8 | 14.5 | 0.00 | 0.00 | 0.00 | 92 | 1006.5 |
| 20260505121543 | 20 | 258 | 6.4 | 19.3 | 0.00 | 0.00 | 0.00 | 92 | 1006.4 |
| 20260505120043 | 20 | 206 | 6.4 | 14.5 | 0.00 | 0.00 | 0.00 | 91 | 1006.3 |
| 20260505114537 | 20 | 221 | 4.8 | 12.9 | 0.00 | 0.00 | 0.00 | 91 | 1006.0 |
| 20260505113036 | 20 | 187 | 6.4 | 16.1 | 0.00 | 0.00 | 0.00 | 91 | 1006.0 |
| 20260505111539 | 20 | 217 | 4.8 | 11.3 | 0.00 | 0.00 | 0.00 | 91 | 1005.9 |
| 20260505101527 | 20 | 194 | 3.2 | 12.9 | 0.00 | 0.00 | 0.00 | 90 | 1006.1 |
| 20260505100030 | 20 | 214 | 1.6 | 19.3 | 0.00 | 0.00 | 0.00 | 89 | 1006.2 |
| 20260505094524 | 20 | 206 | 4.8 | 20.9 | 0.00 | 0.00 | 0.00 | 89 | 1006.3 |
| 20260505093022 | 20 | 232 | 4.8 | 16.1 | 0.00 | 0.00 | 0.00 | 89 | 1006.4 |
| 20260505091520 | 20 | 246 | 3.2 | 12.9 | 0.00 | 0.00 | 0.00 | 89 | 1006.3 |
| 20260505090021 | 20 | 234 | 4.8 | 19.3 | 0.00 | 0.00 | 0.00 | 89 | 1006.4 |
| 20260505084521 | 20 | 168 | 6.4 | 11.3 | 0.00 | 0.00 | 0.00 | 89 | 1006.5 |
| 20260505083018 | 20 | 175 | 8.0 | 16.1 | 0.00 | 0.00 | 0.00 | 88 | 1006.6 |
| 20260505081518 | 20 | 201 | 6.4 | 16.1 | 0.00 | 0.00 | 0.00 | 88 | 1006.8 |
| 20260505080014 | 20 | 175 | 3.2 | 11.3 | 0.00 | 0.00 | 0.00 | 88 | 1006.9 |
| 20260505074513 | 20 | 142 | 3.2 | 12.9 | 0.00 | 0.00 | 0.00 | 88 | 1007.1 |
| 20260505073012 | 20 | 87 | 3.2 | 11.3 | 0.00 | 0.00 | 0.00 | 88 | 1007.3 |
| 20260505071523 | 20 | 83 | 6.4 | 11.3 | 0.00 | 0.00 | 0.00 | 88 | 1007.5 |
| 20260505070007 | 20 | 183 | 4.8 | 11.3 | 0.00 | 0.00 | 0.00 | 88 | 1007.7 |
| 20260505064511 | 20 | 158 | 3.2 | 9.7 | 0.00 | 0.00 | 0.00 | 88 | 1007.9 |
| 20260505063009 | 20 | 142 | 3.2 | 12.9 | 0.00 | 0.00 | 0.00 | 87 | 1008.1 |
| 20260505061505 | 21 | 227 | 4.8 | 12.9 | 0.00 | 0.00 | 0.00 | 87 | 1008.2 |
| 20260505054559 | 21 | 187 | 4.8 | 11.3 | 0.00 | 0.00 | 0.00 | 87 | 1008.2 |
| 20260505053105 | 21 | 195 | 4.8 | 12.9 | 0.00 | 0.00 | 0.00 | 86 | 1008.3 |
| 20260505051555 | 21 | 180 | 3.2 | 9.7 | 0.00 | 0.00 | 0.00 | 85 | 1008.4 |
| 20260505041553 | 21 | 148 | 1.6 | 8.0 | 0.00 | 0.00 | 0.00 | 81 | 1008.3 |
| 20260505040051 | 21 | 106 | 1.6 | 6.4 | 0.00 | 0.00 | 0.00 | 80 | 1008.3 |
| 20260505034549 | 21 | 131 | 0.0 | 4.8 | 0.00 | 0.00 | 0.00 | 79 | 1008.2 |
| 20260505033049 | 21 | 126 | 1.6 | 6.4 | 0.00 | 0.00 | 0.00 | 78 | 1008.2 |
| 20260505031548 | 21 | 88 | 0.0 | 0.0 | 0.00 | 0.00 | 0.00 | 78 | 1008.2 |
| 20260505030048 | 21 | 102 | 0.0 | 0.0 | 0.00 | 0.00 | 0.00 | 77 | 1008.1 |
| 20260505024547 | 21 | 137 | 0.0 | 3.2 | 0.00 | 0.00 | 0.00 | 77 | 1008.1 |
| 20260505023051 | 22 | 97 | 1.6 | 4.8 | 0.00 | 0.00 | 0.00 | 76 | 1008.2 |
| 20260505021545 | 22 | 147 | 1.6 | 6.4 | 0.00 | 0.00 | 0.00 | 75 | 1008.1 |
| 20260505020045 | 22 | 134 | 0.0 | 4.8 | 0.00 | 0.00 | 0.00 | 74 | 1008.1 |
| 20260505014545 | 22 | 183 | 1.6 | 8.0 | 0.00 | 0.00 | 0.00 | 73 | 1008.0 |
| 20260505013043 | 23 | 170 | 1.6 | 8.0 | 0.00 | 0.00 | 0.00 | 71 | 1007.8 |
| 20260505011550 | 23 | 166 | 6.4 | 11.3 | 0.00 | 0.00 | 0.00 | 70 | 1007.7 |
| 20260505010047 | 24 | 211 | 3.2 | 9.7 | 0.00 | 0.00 | 0.00 | 69 | 1007.8 |
| 20260505004542 | 24 | 195 | 3.2 | 12.9 | 0.00 | 0.00 | 0.00 | 68 | 1007.9 |
| 20260505003040 | 25 | 178 | 6.4 | 16.1 | 0.00 | 0.00 | 0.00 | 67 | 1007.9 |
| 20260505001540 | 25 | 230 | 8.0 | 16.1 | 0.00 | 0.00 | 0.00 | 65 | 1007.8 |
| 20260505000040 | 26 | 189 | 8.0 | 19.3 | 0.00 | 0.00 | 0.00 | 64 | 1007.8 |
| 20260504234539 | 26 | 156 | 3.2 | 19.3 | 0.00 | 0.00 | 0.00 | 64 | 1007.7 |
| 20260504233042 | 26 | 141 | 6.4 | 19.3 | 0.00 | 0.00 | 0.00 | 62 | 1007.7 |
| 20260504231538 | 26 | 179 | 11.3 | 22.5 | 0.00 | 0.00 | 0.00 | 61 | 1008.0 |
| 20260504230034 | 26 | 181 | 4.8 | 20.9 | 0.00 | 0.00 | 0.00 | 63 | 1008.1 |
| 20260504224532 | 26 | 153 | 9.7 | 25.7 | 0.00 | 0.00 | 0.00 | 63 | 1008.5 |
| 20260504223031 | 26 | 227 | 9.7 | 25.7 | 0.00 | 0.00 | 0.00 | 61 | 1008.5 |
| 20260504221628 | 26 | 132 | 4.8 | 25.7 | 0.00 | 0.00 | 0.00 | 61 | 1008.6 |
| 20260504220027 | 26 | 197 | 4.8 | 19.3 | 0.00 | 0.00 | 0.00 | 64 | 1008.7 |
| 20260504214526 | 26 | 163 | 8.0 | 20.9 | 0.00 | 0.00 | 0.00 | 63 | 1008.9 |
| 20260504213025 | 26 | 213 | 9.7 | 24.1 | 0.00 | 0.00 | 0.00 | 61 | 1009.0 |
| 20260504211522 | 25 | 178 | 9.7 | 25.7 | 0.00 | 0.00 | 0.00 | 64 | 1009.2 |
| 20260504210024 | 25 | 255 | 11.3 | 22.5 | 0.00 | 0.00 | 0.00 | 63 | 1009.4 |